PROPCUBE 1 (FLORA)

Last updated on Wed Oct 29 2025 00:03:53 GMT+0000 (Coordinated Universal Time)

1 40976U 15058N 25301.40029888 .00003090 00000+0 29725-3 0 9994 2 40976 64.7745 292.7713 0142274 150.7471 210.1704 14.87586029 81764
UTC large
Height (km)
Speed (km/s)
/
Latitude / Longitude
Inclination (degrees)
Orbital Period (minutes)
Azimuth
Elevation
Range (km)
Doppler Factor

Next 0 passes for location: London (51.5072 / 0.1276)

Sorry there are no passes over London.